#timestamp,LO_Frequency,Hit 
1504058415.1,286046996.8,N
1504058435.9,286046999.4,N
1504058455.7,286046996.9,N
1504058475.5,286046999.0,N
1504058495.4,286047002.6,N
1504058515.2,286047002.4,N
1504058535.0,286047002.4,N
1504058535.9,286047002.4,N
1504058555.8,286047002.6,N
1504058575.6,286047002.1,N
1504058595.4,286047004.0,N
1504058615.3,286047001.2,N
1504058635.1,286047005.2,N
1504058636.0,286047005.2,N
1504058655.8,286047009.1,N
1504058675.7,286047006.9,N
1504058695.5,286047005.0,N
1504058715.3,286047003.8,N
1504058735.1,286047003.8,N
1504058755.9,286047003.9,N
1504058775.7,286047002.0,N
1504058795.5,286047000.3,N
1504058815.4,286047000.9,N
1504058835.2,286046998.4,N
1504058855.0,286046999.0,N
1504058855.9,286046999.0,N
1504058875.8,286047000.9,N
1504058895.6,286046999.2,N
1504058915.4,286046996.5,N
1504058935.3,286046997.4,N
1504058955.1,286046997.1,N
1504058956.0,286046997.1,N
1504058975.8,286046995.7,N
1504058995.7,286046995.7,N
1504059015.5,286046997.1,N
1504059035.3,286046999.3,N
1504059055.2,286046996.8,N
1504059075.9,286046996.9,N
1504059095.7,286046996.9,N
1504059115.5,286046998.7,N
1504059135.4,286046997.3,N
1504059155.2,286046997.4,N
1504059175.0,286046996.0,N
1504059175.9,286046996.0,N
1504059195.8,286046996.1,N
1504059215.6,286046995.7,N
1504059235.4,286046995.3,N
1504059255.3,286046996.6,N
1504059275.1,286046997.4,N
1504059295.9,286046993.5,P
1504059315.7,286046994.7,N
1504059335.5,286046993.9,P
1504059355.4,286046993.8,P
1504059375.2,286047002.0,P
1504059395.0,286047003.2,N
1504059395.9,286047003.2,N
1504059415.8,286047006.4,N
1504059435.6,286047010.4,N
1504059455.4,286047008.3,N
1504059475.2,286047009.3,N
1504059495.1,286047012.8,N
1504059496.0,286047012.8,N
1504059515.8,286047014.9,N
1504059535.6,286047013.4,N
1504059555.5,286047010.4,N
1504059575.3,286047008.9,N
1504059595.1,286047008.0,N
1504059615.9,286047012.4,N
1504059635.7,286047011.4,N
1504059655.5,286047007.9,N
1504059675.4,286047010.3,N
1504059695.2,286047009.6,N
1504059715.0,286047014.0,N
1504059715.9,286047014.0,N
1504059735.8,286047011.5,N
1504059755.6,286047010.1,N
1504059775.4,286047009.7,N
1504059795.2,286047009.3,N
1504059815.1,286047009.8,N
1504059816.0,286047009.8,N
1504059835.8,286047011.7,N
1504059855.6,286047012.1,N
1504059875.5,286047011.9,N
1504059895.3,286047011.6,P
1504059915.1,286047003.1,P
1504059935.9,286047001.9,N
1504059955.7,286047004.2,N
1504059975.5,286047002.9,N
1504059995.4,286047005.9,N
1504060015.2,286047003.8,N
1504060035.0,286047000.1,N
1504060035.9,286047000.1,N
1504060055.8,286047002.2,N
1504060075.6,286047001.2,N
1504060095.4,286047002.5,N
1504060115.3,286047000.6,N
1504060135.1,286046996.5,N
1504060136.0,286046996.5,N
1504060155.8,286047000.7,N
1504060175.7,286046997.7,N
1504060195.5,286047001.2,N
1504060215.3,286046996.9,N
1504060235.1,286046995.4,N
1504060255.9,286046998.0,N
1504060275.7,286046999.2,N
1504060295.5,286046998.2,N
1504060315.4,286047002.4,N
1504060335.2,286046998.8,N
1504060355.0,286046997.4,N
1504060355.9,286046997.4,N
1504060375.8,286046999.4,N
1504060395.6,286047000.2,N
1504060415.4,286047003.3,N
1504060435.3,286047003.9,N
1504060455.1,286047003.5,N
1504060456.0,286047003.5,N
1504060475.8,286047003.5,N
1504060495.7,286047001.8,N
1504060515.5,286047003.5,N
1504060535.3,286047001.5,N
1504060555.2,286047003.2,N
1504060575.9,286047008.9,P
1504060595.7,286047007.0,N
1504060615.6,286047004.5,N
1504060635.4,286047005.7,N
1504060655.2,286047009.1,P
1504060675.1,286047002.6,N
1504060676.0,286047002.6,N
1504060695.8,286047001.2,N
1504060715.6,286046998.5,N
1504060735.5,286046998.5,N
1504060755.3,286046999.4,N
1504060775.1,286046998.3,N
1504060795.9,286047001.0,N
1504060815.7,286047002.3,N
1504060835.5,286047002.2,N
1504060855.4,286047005.5,N
1504060875.2,286047004.7,N
1504060895.0,286047002.9,N
1504060895.9,286047002.9,N
1504060915.7,286047003.1,N
1504060935.6,286047002.0,N
1504060955.4,286047003.8,N
1504060975.2,286047000.3,N
1504060995.1,286047003.0,N
1504060996.0,286047003.0,N
1504061015.8,286047001.6,N
1504061035.6,286047001.9,N
1504061055.5,286047000.7,N
1504061075.3,286046998.8,N
1504061095.1,286046999.1,N
1504061115.9,286047001.7,N
1504061135.7,286047006.0,N
1504061155.5,286047009.2,P
1504061175.4,286047003.5,N
1504061195.2,286047001.9,N
1504061215.0,286047001.8,N
1504061215.9,286047001.8,N
1504061235.8,286047000.6,N
1504061255.6,286046996.7,N
1504061275.4,286046998.4,N
1504061295.3,286046996.7,N
1504061315.1,286046996.3,N
1504061316.0,286046996.3,N
1504061335.8,286046993.1,N
1504061355.7,286046988.5,N
1504061375.5,286046991.0,N
1504061395.3,286046992.2,N
1504061415.1,286046994.7,N
1504061435.9,286046994.4,N
1504061455.7,286046990.6,N
1504061475.5,286046988.8,N
1504061495.4,286046991.6,N
1504061515.2,286046988.7,N
1504061535.0,286046989.6,N
1504061535.9,286046989.6,N
1504061555.8,286046987.5,N
1504061575.6,286046989.5,N
1504061595.4,286046988.7,N
1504061615.3,286046989.7,N
1504061635.1,286046985.7,N
1504061655.8,286046987.7,N
1504061675.7,286046985.5,N
1504061695.5,286046986.0,N
1504061715.3,286046987.5,N
1504061735.2,286046987.5,N
1504061755.9,286046988.7,N
1504061775.7,286046987.1,N
1504061795.6,286046987.1,P
1504061815.4,286047001.5,N
1504061835.2,286047002.2,N
1504061855.1,286047005.9,N
1504061856.0,286047005.9,N
1504061875.8,286047003.5,N
1504061895.6,286047001.5,N
1504061915.5,286047000.4,N
1504061935.3,286047001.2,N
1504061955.1,286047001.5,N
1504061975.8,286046999.5,N
1504061995.7,286046998.7,N
